When you browse on this site, cookies collect data to enhance your experience and personalize the content and advertising you see.
Visit our Privacy Policy to learn more. By continuing to use the site, you agree to this use of cookies and data.
  • în România
  • Lista ţărilor
  • Pe 7 zile
  • Temperatura apei
  • Hartă satelitară
  • Meteo pe hartă
  • Widget-uri
  • user-avatar
    Intrare

    Meteo pe oră la Nizhnebalkovskiy

    Astăzi, 19 Noiembrie, Luni

    Timp Temperatura Precipitaţii Vânt Presiune Umiditate
    00:00 +5°C° 0 mm 1 m/s 734 mmHg 92%
    01:00 +4°C° 0 mm 1 m/s 734 mmHg 93%
    02:00 +4°C° 0 mm 1 m/s 734 mmHg 93%
    03:00 +4°C° 0 mm 1 m/s 734 mmHg 93%
    04:00 +3°C° 0 mm 1 m/s 734 mmHg 91%
    05:00 +3°C° 0 mm 1 m/s 734 mmHg 90%
    06:00 +3°C° 0 mm 1 m/s 734 mmHg 89%
    07:00 +3°C° 0 mm 2 m/s 734 mmHg 86%
    08:00 +4°C° 0 mm 2 m/s 734 mmHg 82%
    09:00 +4°C° 0 mm 2 m/s 734 mmHg 79%
    10:00 +4°C° 0 mm 3 m/s 733 mmHg 77%
    11:00 +5°C° 0 mm 3 m/s 733 mmHg 74%
    12:00 +6°C° 0 mm 4 m/s 733 mmHg 72%
    13:00 +5°C° 0 mm 4 m/s 733 mmHg 73%
    14:00 +5°C° 0 mm 4 m/s 732 mmHg 74%
    15:00 +5°C° 0 mm 4 m/s 732 mmHg 75%
    16:00 +4°C° 0 mm 4 m/s 732 mmHg 78%
    17:00 +4°C° 0 mm 4 m/s 732 mmHg 81%
    18:00 +3°C° 0 mm 4 m/s 732 mmHg 84%
    19:00 +3°C° 0 mm 3 m/s 732 mmHg 83%
    20:00 +2°C° 0 mm 3 m/s 732 mmHg 82%
    21:00 +2°C° 0 mm 3 m/s 732 mmHg 80%
    22:00 +2°C° 0 mm 3 m/s 731 mmHg 79%
    23:00 +2°C° 0 mm 3 m/s 731 mmHg 77%

    Mâine, 20 Noiembrie, Marţi

    Timp Temperatura Precipitaţii Vânt Presiune Umiditate
    00:00 +2°C° 0 mm 3 m/s 731 mmHg 75%
    01:00 +2°C° 0 mm 3 m/s 731 mmHg 76%
    02:00 +3°C° 0 mm 2 m/s 730 mmHg 76%
    03:00 +3°C° 0 mm 2 m/s 730 mmHg 77%
    04:00 +4°C° 0 mm 2 m/s 730 mmHg 76%
    05:00 +4°C° 0 mm 2 m/s 730 mmHg 76%
    06:00 +4°C° 0 mm 2 m/s 730 mmHg 75%
    07:00 +4°C° 0 mm 2 m/s 730 mmHg 75%
    08:00 +5°C° 0 mm 2 m/s 730 mmHg 74%
    09:00 +6°C° 0 mm 1 m/s 730 mmHg 74%
    10:00 +6°C° 0.4 mm 1 m/s 729 mmHg 75%
    11:00 +7°C° 0.4 mm 1 m/s 729 mmHg 76%
    12:00 +7°C° 0.4 mm 1 m/s 729 mmHg 77%
    13:00 +7°C° 0.4 mm 1 m/s 729 mmHg 78%
    14:00 +7°C° 0.4 mm 1 m/s 728 mmHg 79%
    15:00 +7°C° 0.4 mm 1 m/s 728 mmHg 80%
    16:00 +7°C° 0 mm 1 m/s 728 mmHg 81%
    17:00 +7°C° 0 mm 1 m/s 728 mmHg 83%
    18:00 +6°C° 0 mm 1 m/s 728 mmHg 84%
    19:00 +7°C° 0 mm 1 m/s 728 mmHg 83%
    20:00 +7°C° 0 mm 1 m/s 729 mmHg 82%
    21:00 +7°C° 0 mm 1 m/s 729 mmHg 81%
    22:00 +7°C° 0 mm 1 m/s 729 mmHg 83%
    23:00 +6°C° 0 mm 2 m/s 729 mmHg 85%

    Poimâine, 21 Noiembrie, Miercuri

    Timp Temperatura Precipitaţii Vânt Presiune Umiditate
    00:00 +6°C° 0 mm 2 m/s 729 mmHg 87%
    01:00 +5°C° 0 mm 3 m/s 729 mmHg 88%
    02:00 +5°C° 0 mm 3 m/s 730 mmHg 88%
    03:00 +5°C° 0 mm 4 m/s 730 mmHg 89%
    04:00 +5°C° 0 mm 3 m/s 730 mmHg 90%
    05:00 +4°C° 0 mm 3 m/s 730 mmHg 91%
    06:00 +5°C° 0 mm 2 m/s 730 mmHg 91%
    07:00 +5°C° 0 mm 2 m/s 730 mmHg 90%
    08:00 +7°C° 0 mm 1 m/s 730 mmHg 89%
    09:00 +7°C° 0 mm 1 m/s 730 mmHg 87%
    10:00 +7°C° 0 mm 1 m/s 730 mmHg 84%
    11:00 +8°C° 0 mm 1 m/s 729 mmHg 81%
    12:00 +8°C° 0 mm 1 m/s 729 mmHg 78%
    13:00 +8°C° 0.2 mm 1 m/s 729 mmHg 79%
    14:00 +8°C° 0.2 mm 1 m/s 728 mmHg 80%
    15:00 +7°C° 0.2 mm 2 m/s 728 mmHg 82%
    16:00 +7°C° 0.9 mm 2 m/s 728 mmHg 85%
    17:00 +6°C° 0.9 mm 2 m/s 728 mmHg 88%
    18:00 +6°C° 0.9 mm 2 m/s 728 mmHg 91%
    19:00 +5°C° 1.1 mm 2 m/s 728 mmHg 92%
    20:00 +6°C° 1.1 mm 1 m/s 728 mmHg 93%
    21:00 +6°C° 1.1 mm 1 m/s 728 mmHg 94%
    22:00 +6°C° 0.3 mm 1 m/s 728 mmHg 94%
    23:00 +5°C° 0.3 mm 2 m/s 728 mmHg 94%

    22 Noiembrie, Joi

    Timp Temperatura Precipitaţii Vânt Presiune Umiditate
    00:00 +4°C° 0.3 mm 2 m/s 728 mmHg 94%
    01:00 +4°C° 0.3 mm 2 m/s 728 mmHg 94%
    02:00 +4°C° 0.3 mm 2 m/s 728 mmHg 94%
    03:00 +4°C° 0.3 mm 2 m/s 728 mmHg 94%
    04:00 +4°C° 0.2 mm 2 m/s 728 mmHg 94%
    05:00 +4°C° 0.2 mm 2 m/s 728 mmHg 94%
    06:00 +4°C° 0.2 mm 2 m/s 728 mmHg 94%
    07:00 +4°C° 0 mm 2 m/s 728 mmHg 93%
    08:00 +4°C° 0 mm 2 m/s 728 mmHg 92%
    09:00 +4°C° 0 mm 2 m/s 728 mmHg 91%
    10:00 +4°C° 0 mm 2 m/s 728 mmHg 89%
    11:00 +4°C° 0 mm 2 m/s 728 mmHg 87%
    12:00 +5°C° 0 mm 2 m/s 728 mmHg 85%
    13:00 +5°C° 0 mm 2 m/s 728 mmHg 84%
    14:00 +5°C° 0 mm 2 m/s 728 mmHg 83%
    15:00 +5°C° 0 mm 2 m/s 728 mmHg 83%
    16:00 +6°C° 0 mm 1 m/s 728 mmHg 84%
    17:00 +5°C° 0 mm 1 m/s 728 mmHg 86%
    18:00 +5°C° 0 mm 1 m/s 729 mmHg 87%
    19:00 +5°C° 0 mm 1 m/s 729 mmHg 89%
    20:00 +4°C° 0 mm 1 m/s 729 mmHg 90%
    21:00 +3°C° 0 mm 0 m/s 729 mmHg 91%
    22:00 +4°C° 0 mm 1 m/s 729 mmHg 91%
    23:00 +3°C° 0 mm 1 m/s 729 mmHg 91%

    23 Noiembrie, Vineri

    Timp Temperatura Precipitaţii Vânt Presiune Umiditate
    00:00 +3°C° 0 mm 1 m/s 729 mmHg 91%
    01:00 +3°C° 0 mm 1 m/s 730 mmHg 91%
    02:00 +3°C° 0 mm 1 m/s 730 mmHg 92%
    03:00 +1°C° 0 mm 2 m/s 730 mmHg 92%
    04:00 +1°C° 0 mm 2 m/s 730 mmHg 91%
    05:00 +1°C° 0 mm 2 m/s 731 mmHg 89%
    06:00 +1°C° 0 mm 2 m/s 731 mmHg 88%
    07:00 0°C° 0 mm 3 m/s 731 mmHg 84%
    08:00 +1°C° 0 mm 3 m/s 732 mmHg 80%
    09:00 +1°C° 0 mm 3 m/s 732 mmHg 77%
    10:00 +2°C° 0 mm 3 m/s 732 mmHg 71%
    11:00 +3°C° 0 mm 3 m/s 732 mmHg 65%
    12:00 +4°C° 0 mm 4 m/s 733 mmHg 59%
    13:00 +4°C° 0 mm 3 m/s 733 mmHg 58%
    14:00 +4°C° 0 mm 3 m/s 733 mmHg 57%
    15:00 +4°C° 0 mm 3 m/s 734 mmHg 56%
    16:00 +2°C° 0 mm 3 m/s 734 mmHg 61%
    17:00 +2°C° 0 mm 2 m/s 735 mmHg 67%
    18:00 +2°C° 0 mm 1 m/s 736 mmHg 72%
    19:00 +1°C° 0 mm 1 m/s 736 mmHg 75%
    20:00 +1°C° 0 mm 1 m/s 737 mmHg 77%
    21:00 0°C° 0 mm 1 m/s 737 mmHg 79%
    22:00 -2°C° 0 mm 2 m/s 737 mmHg 80%
    23:00 -2°C° 0 mm 2 m/s 738 mmHg 81%

    24 Noiembrie, Sâmbătă

    Timp Temperatura Precipitaţii Vânt Presiune Umiditate
    00:00 -2°C° 0 mm 2 m/s 738 mmHg 83%
    01:00 -2°C° 0 mm 2 m/s 738 mmHg 83%
    02:00 -2°C° 0 mm 2 m/s 738 mmHg 84%
    03:00 -2°C° 0 mm 2 m/s 738 mmHg 84%
    04:00 -2°C° 0 mm 2 m/s 738 mmHg 84%
    05:00 -3°C° 0 mm 2 m/s 738 mmHg 84%
    06:00 -4°C° 0 mm 3 m/s 738 mmHg 84%
    07:00 -2°C° 0 mm 3 m/s 738 mmHg 81%
    08:00 -2°C° 0 mm 3 m/s 739 mmHg 79%
    09:00 -1°C° 0 mm 3 m/s 739 mmHg 76%
    10:00 0°C° 0 mm 3 m/s 738 mmHg 71%
    11:00 0°C° 0 mm 4 m/s 738 mmHg 67%
    12:00 +3°C° 0 mm 4 m/s 738 mmHg 62%
    13:00 +3°C° 0 mm 4 m/s 737 mmHg 64%
    14:00 +3°C° 0 mm 4 m/s 737 mmHg 65%
    15:00 +3°C° 0 mm 4 m/s 737 mmHg 66%
    16:00 +2°C° 0 mm 3 m/s 737 mmHg 71%
    17:00 0°C° 0 mm 3 m/s 737 mmHg 76%
    18:00 -1°C° 0 mm 3 m/s 737 mmHg 81%
    19:00 -1°C° 0 mm 2 m/s 737 mmHg 80%
    20:00 -1°C° 0 mm 2 m/s 737 mmHg 79%
    21:00 -1°C° 0 mm 2 m/s 737 mmHg 78%
    22:00 -1°C° 0 mm 2 m/s 736 mmHg 76%
    23:00 -1°C° 0 mm 2 m/s 736 mmHg 74%
    Arată mai mult